This is the latest recevied weather packets stored in our database for station/object SP2FH-13. If no packets are shown the sender has not sent any weather packets the latest 1 day(s).
| Time | Temp. | Humidity | Pressure | Rain* | Wind** | Luminosity | Snow |
|---|---|---|---|---|---|---|---|
| 1778046542 | 12.78° C | 70% | 994.4 hPa | - | - | 177 W/m² | - |
| 1778046240 | 12.78° C | 70% | 994.4 hPa | - | - | 198 W/m² | - |
| 1778045638 | 12.78° C | 70% | 994.7 hPa | - | - | 207 W/m² | - |
| 1778045336 | 12.78° C | 71% | 994.6 hPa | - | - | 144 W/m² | - |
| 1778045034 | 12.78° C | 69% | 994.8 hPa | - | - | 206 W/m² | - |
| 1778044733 | 12.22° C | 70% | 994.7 hPa | - | - | 208 W/m² | - |
| 1778043831 | 12.22° C | 71% | 994.8 hPa | - | - | 156 W/m² | - |
| 1778043529 | 11.67° C | 73% | 994.7 hPa | - | - | 123 W/m² | - |
| 1778043228 | 12.22° C | 72% | 994.7 hPa | - | - | 103 W/m² | - |
| 1778042625 | 11.67° C | 74% | 994.7 hPa | - | - | 65 W/m² | - |
| 1778042324 | 11.67° C | 74% | 994.8 hPa | - | - | 77 W/m² | - |
| 1778042023 | 11.11° C | 75% | 994.8 hPa | - | - | 68 W/m² | - |
| 1778041420 | 11.11° C | 76% | 994.8 hPa | - | - | 45 W/m² | - |
| 1778041119 | 10.56° C | 77% | 994.8 hPa | - | - | 46 W/m² | - |
| 1778040818 | 10.56° C | 77% | 994.8 hPa | - | - | 51 W/m² | - |
| 1778040516 | 10.56° C | 78% | 995 hPa | - | - | 46 W/m² | - |
| 1778039914 | 10.56° C | 79% | 995.2 hPa | - | - | 41 W/m² | - |
| 1778039612 | 10.56° C | 80% | 995.3 hPa | - | - | 37 W/m² | - |
| 1778039311 | 10° C | 80% | 995.2 hPa | - | - | 34 W/m² | - |
| 1778038708 | 9.44° C | 82% | 995.3 hPa | - | - | 28 W/m² | - |
| 1778038407 | 9.44° C | 83% | 995.2 hPa | - | - | 23 W/m² | - |
| 1778038106 | 9.44° C | 83% | 995.2 hPa | - | - | 18 W/m² | - |
| 1778037805 | 9.44° C | 83% | 995.2 hPa | - | - | 13 W/m² | - |
| 1778037504 | 9.44° C | 84% | 995.3 hPa | - | - | 9 W/m² | - |
| 1778037203 | 9.44° C | 84% | 995.4 hPa | - | - | 6 W/m² | - |
* Rain since midnight (hover to see other rain measurements)
** Current wind speed in m/s (hover to see current wind gust speed)